CAPE
0 0 0 0 0 0 0 0 0 0 0 0 0 0 0 0 0 0 0 0 0 4 0 0 5 276 352 539 925 754 824 719
0 0 0 0 0 0 0 0 0 0 0 0 0 0 0 0 0 0 0 0 0 0 1 1 35 113 46 408 808 789 522 142
0 0 0 0 0 0 0 0 0 0 0 0 0 0 0 0 0 0 0 0 0 0 0 0 10 1 154 151 619 665 458 119
0 0 0 0 0 0 0 0 0 0 0 0 0 0 0 0 0 0 0 0 0 0 0 0 0 1 4 27 321 285 346 200
0 0 0 0 0 0 0 0 0 0 0 0 0 0 0 0 0 0 0 0 0 0 0 0 0 0 0 0 0 204 21 10
0 0 0 0 0 0 0 0 0 0 0 0 0 0 0 0 0 0 0 0 0 0 0 0 1 2 2 4 0 0 267 58
0 0 0 0 0 0 0 0 0 0 0 0 0 0 0 0 0 0 0 0 0 0 0 0 1 2 2 3 4 1 41 305
0 0 0 0 0 0 0 0 0 0 0 0 0 0 0 0 0 0 1 2 1 0 0 0 1 0 0 1 2 1 0 51
0 1 0 0 0 0 0 0 1 1 0 0 0 0 0 2 1 0 1 7 5 1 2 2 4 5 4 0 0 0 3 0
1 0 1 0 0 0 0 0 1 1 1 1 0 0 0 3 5 4 7 8 6 6 6 9 9 8 8 7 1 1 1 3
0 0 0 0 0 0 2 2 4 3 6 1 0 0 0 6 8 6 6 10 10 10 11 10 11 12 12 11 10 4 4 0
0 0 0 0 0 0 0 1 2 2 7 8 0 4 2 3 4 10 8 10 8 10 11 11 10 8 11 12 11 10 3 1
0 0 0 0 0 0 1 1 1 5 1 4 9 10 11 9 13 10 10 10 10 11 8 9 9 13 15 14 12 16 15 9
0 0 0 1 0 1 1 2 4 0 0 1 7 6 11 17 16 12 10 10 10 9 10 10 10 11 12 13 11 7 9 11
0 0 0 2 2 3 2 1 2 1 2 1 0 4 10 7 11 9 9 9 7 9 11 11 12 9 11 13 10 8 6 10
1 1 1 1 1 2 2 2 4 1 0 0 1 1 2 3 3 5 6 6 7 5 5 8 8 8 12 8 3 2 3 10
1 1 1 1 1 2 0 0 1 0 0 0 0 1 1 1 1 2 1 2 2 1 1 4 5 8 13 8 4 6 2 2
1 1 2 3 2 1 0 0 0 0 0 0 0 0 0 0 1 0 0 0 0 0 0 0 1 4 15 9 2 2 0 1
1 1 1 0 0 0 0 0 0 0 0 0 0 0 0 0 0 0 0 0 0 0 0 0 0 6 15 12 3 0 0 0
CIN
0 0 0 0 0 0 0 0 0 0 0 0 0 0 0 0 0 0 0 0 0 -61 0 0 -231 -63 -7 -32 -36 -71 -78 -84
0 0 0 0 0 0 0 0 0 0 0 0 0 0 0 0 0 0 0 0 0 0 0 0 -38 -1 -30 -1 -31 -42 -87 -185
0 0 0 0 0 0 0 0 0 0 0 0 0 0 0 0 0 0 0 0 0 0 0 0 0 0 -10 -6 -3 -7 -49 -141
0 0 0 0 0 0 0 0 0 0 0 0 0 0 0 0 0 0 0 0 0 0 0 0 0 -1 0 -25 -27 -40 -21 -35
0 0 0 0 0 0 0 0 0 0 0 0 0 0 0 0 0 0 0 0 0 0 0 0 0 0 0 0 0 -36 -68 -16
0 0 0 0 0 0 0 0 0 0 0 0 0 0 0 0 0 0 0 0 0 0 0 0 -1 -1 0 0 0 0 -21 -56
0 0 0 0 0 0 0 0 0 0 0 0 0 0 0 0 0 0 0 0 0 0 0 0 -1 0 0 0 0 0 -14 -1
0 0 0 0 0 0 0 0 0 0 0 0 0 0 0 0 0 0 0 0 0 0 0 0 0 0 0 -1 0 0 0 -2
0 0 0 0 0 0 0 0 0 0 0 0 0 0 0 0 0 0 0 0 0 0 0 0 0 0 0 0 0 0 0 0
0 0 0 0 0 0 0 0 0 0 0 0 0 0 0 0 0 0 0 0 0 0 0 0 0 0 0 0 0 0 0 0
0 0 0 0 0 0 0 0 0 0 0 0 0 0 0 0 0 0 0 0 0 0 0 0 0 0 0 0 0 0 0 0
0 0 0 0 0 0 0 0 0 0 0 0 0 0 0 0 0 0 0 0 0 0 0 0 0 0 0 0 0 0 0 0
0 0 0 0 0 0 0 0 0 0 0 0 0 0 0 0 0 0 0 0 0 0 0 0 0 0 0 0 0 0 0 0
0 0 0 0 0 0 0 0 0 0 0 0 0 0 0 0 0 0 0 0 0 0 0 0 0 0 0 0 0 0 0 0
0 0 0 0 0 0 0 0 0 0 0 0 0 0 0 0 0 0 0 0 0 0 0 0 0 0 0 0 0 0 0 0
0 0 0 0 0 0 0 0 0 0 0 0 0 0 0 0 0 0 0 0 0 0 0 0 0 0 0 0 0 0 0 0
0 0 0 0 0 0 0 0 0 0 0 0 0 0 0 0 0 0 0 0 0 0 0 0 0 0 0 0 0 0 0 0
0 0 0 0 0 0 0 0 0 0 0 0 0 0 0 0 0 0 0 0 0 0 0 0 0 0 0 0 0 0 0 0
0 0 0 0 0 0 0 -1 0 0 0 0 0 0 0 0 0 0 0 0 0 0 0 0 0 0 0 0 0 0 0 0
Wind_Speed
12 14 12 11 10 11 11 10 11 8 5 4 4 4 4 4 4 6 8 8 11 8 6 9 7 9 8 6 9 8 7 9
13 12 12 12 13 14 13 12 12 9 5 4 4 4 3 3 4 6 6 7 9 9 5 5 8 17 12 11 8 10 7 4
11 12 14 16 14 14 14 12 12 10 6 4 2 2 3 2 4 5 6 7 8 8 8 5 6 7 14 19 12 7 4 7
13 15 14 13 15 14 13 12 10 9 8 4 3 2 2 3 5 3 5 5 4 5 5 5 6 5 8 7 6 8 5 2
13 13 14 14 12 12 13 13 13 11 11 8 9 4 3 3 6 7 6 6 5 4 5 6 7 6 6 7 7 10 9 11
11 10 9 10 10 11 10 11 12 13 13 12 8 7 4 5 6 9 9 6 5 7 5 5 6 6 7 8 10 9 9 13
12 11 10 8 9 10 11 13 13 14 13 12 10 9 10 8 8 8 7 7 8 6 7 6 6 7 7 7 9 10 10 12
9 11 12 12 12 12 14 14 14 14 13 10 11 12 10 10 11 9 11 9 9 10 11 10 9 10 10 9 10 11 10 11
9 10 10 13 15 13 12 12 11 12 14 17 14 14 9 8 9 10 10 9 9 12 11 12 13 12 12 13 11 10 10 11
3 6 8 9 10 12 13 13 14 12 13 12 13 13 13 11 12 10 8 11 10 12 12 12 13 13 13 13 12 14 13 10
3 4 8 7 6 7 8 9 9 10 11 11 12 13 13 11 11 11 12 11 12 13 12 12 12 12 13 13 12 13 14 11
5 7 5 4 5 6 9 9 10 11 12 12 12 11 13 12 11 11 11 12 12 13 12 13 13 14 13 13 14 15 17 16
5 6 8 8 9 11 10 11 11 12 13 12 11 12 13 12 11 12 12 12 12 13 13 13 13 13 13 13 16 15 15 16
4 3 8 9 11 11 11 11 11 12 12 11 12 13 13 13 13 14 14 14 14 14 14 14 14 14 13 13 14 16 18 19
5 7 8 9 10 9 10 10 11 11 12 13 12 13 14 15 15 15 15 15 16 16 15 15 16 16 15 16 16 16 17 17
5 6 7 8 8 9 9 10 11 11 8 8 12 13 13 13 14 15 15 15 15 16 17 16 16 14 12 18 16 15 15 14
5 7 7 6 6 7 7 6 8 7 8 12 11 12 14 15 15 14 15 16 16 17 18 17 17 13 26 26 20 11 12 14
4 4 3 3 3 5 4 4 5 8 10 11 11 12 13 14 15 16 18 18 17 19 19 17 18 21 30 28 26 15 13 16
4 1 1 4 4 4 4 4 8 10 12 11 13 13 13 15 16 16 16 15 17 16 18 19 19 20 33 30 24 16 14 21
Wind_Direction
29 31 43 54 50 54 51 40 31 18 18 21 45 80 44 20 26 30 23 13 4 325 267 280 285 314 265 240 228 214 206 211
54 35 27 30 44 49 46 35 21 27 9 359 9 13 347 40 49 21 31 8 354 346 360 341 254 233 259 250 234 222 212 181
77 61 45 34 33 36 29 27 22 16 15 3 347 298 299 351 40 7 31 15 349 346 337 322 278 296 295 260 236 231 226 182
58 46 47 47 33 25 27 16 8 8 0 350 313 311 9 20 3 351 355 342 336 305 297 294 289 263 264 278 244 228 235 234
48 41 39 34 29 32 18 15 2 4 2 9 27 20 346 347 322 314 328 327 317 313 309 312 308 304 292 285 285 249 228 234
54 43 40 34 24 21 22 14 0 357 357 5 2 347 320 323 322 316 321 325 323 315 300 295 306 310 300 290 286 273 244 233
47 35 29 21 21 18 16 13 3 353 351 355 341 336 337 338 327 321 324 322 322 316 315 309 296 288 287 294 294 292 275 231
44 27 16 8 7 13 12 4 0 349 342 329 342 337 332 324 326 322 321 317 317 315 316 308 300 295 289 280 272 272 272 268
29 11 18 8 6 6 7 356 345 338 344 351 343 336 328 319 322 321 309 306 303 300 298 297 297 293 288 284 281 274 264 259
60 14 28 15 355 347 354 353 345 339 349 340 336 331 331 322 319 312 303 300 299 299 299 290 289 285 281 278 273 270 269 262
94 36 32 12 345 333 350 338 331 339 337 340 340 334 333 328 323 321 316 309 307 302 301 297 290 281 276 272 269 265 259 258
52 35 23 1 357 351 353 333 348 351 348 338 340 338 345 344 339 331 325 319 318 311 311 305 302 292 279 263 255 256 254 254
43 18 6 5 5 1 349 352 356 357 347 344 343 347 351 348 344 342 339 337 331 328 323 320 315 307 306 293 274 257 248 245
44 4 21 13 6 0 348 351 353 352 349 349 357 358 357 352 357 357 353 349 347 346 342 336 333 320 309 294 281 271 264 248
42 29 21 12 5 355 346 354 358 350 1 5 5 5 4 1 1 1 1 2 358 350 348 347 341 329 325 312 288 268 261 243
54 39 24 10 2 352 351 356 353 351 342 356 14 9 3 5 2 5 4 4 0 357 353 353 350 342 335 327 294 243 246 239
57 36 19 3 1 8 360 342 343 328 360 17 11 11 9 8 8 4 4 5 4 3 2 357 360 357 351 6 10 22 45 53
71 37 344 355 1 323 328 333 333 11 23 17 13 19 16 8 8 11 9 5 1 7 3 1 9 11 9 20 27 30 38 51
73 89 200 285 285 293 303 327 23 28 30 18 20 21 18 15 11 9 6 5 5 2 0 5 12 14 15 18 24 36 36 51